STARLINK-30335, 57710

Orbit data source: Space-Track

STARLINK-30335, 57710 is a payload satellite owned by SpaceX/Seattle (US) in LEO that was launched on Sun, 27 Aug 2023 UTC via an FALCON 9 launch vehicle from the Air Force Eastern Test Range (AFETR). Payload-class satellites include a variety of spacecraft equipped with specific instruments for various scientific and technological missions. These include communications satellites like Starlink; space stations such as the ISS; scientific satellites like the Hubble; Earth observation satellites from companies like Planet Labs, Umbra, and HawkEye 360; GPS; miniature CubeSats for education and research; and military/defense satellites.

Loading next visibility...
Identifier
57710, 2023-129N
Orbit
LEO
Country
Flag of USUS
Related business
Manufacturer
SpaceX/Seattle
Mission
Operational Commercial Communications
Bus & Motor
STARLINK V2M, Unknown motor
Mass
730 kg wet, ~700 kg dry
Launch date (UTC)
2023-08-27 (3 years ago)
Launch vehicle
FALCON 9
Launch site
Air Force Eastern Test Range (AFETR)
Object type
Payload
Rocket body
Debris
Shape & HBR
Box + 2 Pan, 17.7 m
Radar Cross Section
33.884 m², Large (>1 m²)

Expand to show TLE details & history
Last TLE update: 3 days ago

TLE from 3 days ago
0 STARLINK-30335
1 57710U 23129N   26170.68872311 -.00001285  00000-0 -37164-4 0  9992
2 57710  43.0001 261.7292 0000857 254.0190 106.0567 15.27596626156286
Epoch: 2026-06-19T16:31Z
TLE epoch observation values (Epoch: 2026-06-19T16:31:45.676Z)
Latitude
-0.00005°
Longitude
105.87473°
Altitude
482.937 km
Speed
7.626 km/s
True Right ascension
17h 26m 54s
True Declination
0° 00' 00"
Sunlit
Object was in full shadow at epoch
Visualization orbit readout
Latitude
Unknown
Longitude
Unknown
Altitude
Unknown
Speed
Unknown
Apparent Right ascension
Unknown
Apparent Declination
Unknown
Sunlit
N/A
Visualization observer readout
Local Sidereal Time
21:23:51
Azimuth
Unknown
Elevation
Unknown
Doppler factor
Unknown
Orbital elements
Apogee altitude
485.533 km
Perigee altitude
484.356 km
Semi-major axis
6,863.081 km
Eccentricity
0.00009
Inclination
43.0001°
RAAN
261.7292°
Arg. of periapsis
254.019°
True anomaly
106.06614°
Mean anomaly
106.0567°
Eccentric anomaly
106.06142°
Mean motion
3.81737 °/min
Orbital period
94.31 mins
BSTAR
-0.000037164
Loading maneuver chart data...
Computing Atmospheric mass density...
Loading historical data...
Loading historical data...
Loading historical data...
Loading historical data...
Loading historical data...
Loading historical data...
Loading historical data...

Documentation

Showing up to 5 results
|